Weather History for KBMQ - March, 2012

Change the Weather History Date:

Thursday, March 15, 2012

  Actual Average Record
Temperature  
Mean Temperature 72 °F -  
Max Temperature 80 °F 65 °F 80 °F (2008)
Min Temperature 66 °F 46 °F 34 °F (1999)
Cooling Degree Days 8    
Growing Degree Days 22 (Base 50)    
Moisture  
Dew Point 62 °F    
Average Humidity 79    
Maximum Humidity 88    
Minimum Humidity 56    
Precipitation  
Precipitation 0.00 in - - ()
Sea Level Pressure  
Sea Level Pressure 30.11 in    
Wind  
Wind Speed 6 mph (SSE)    
Max Wind Speed 13 mph    
Max Gust Speed 20 mph    
Visibility 9 miles    
Events      
Averages and records for this station are not official NWS values.
T = Trace of Precipitation, MM = Missing Value Source: NWS Daily Summary

Daily Weather History Graph

Daily Weather History Graph

Search for Another Location

Airport or City:

Trip Planner

Search our weather history database for the weather conditions in past years. The results will help you decide how hot, cold, wet, or windy it might be!

Date:

Astronomy

Mar. 15, 2012 Rise Set
Actual Time 7:42 AM CDT 7:41 PM CDT
Civil Twilight 7:18 AM CDT 8:05 PM CDT
Nautical Twilight 6:50 AM CDT 8:33 PM CDT
Astronomical Twilight 6:22 AM CDT 9:01 PM CDT
Moon 2:48 AM CDT (3/15) 1:22 PM CDT (3/15)
Length of Visible Light 12h 47m
Length of Day
11h 59m
Last Quarter, 43% of the Moon is Illuminated
Mar 15
Last Quarter
Mar 22
New
Mar 30
First Quarter
Apr 6
Full
Apr 13
Last Quarter

Hourly Weather History & Observations

Time (CDT) Temp. Dew Point Humidity Pressure Visibility Wind Dir Wind Speed Gust Speed Precip Events Conditions
12:12 AM 66.2 °F 60.8 °F 83% 30.12 in 10.0 mi SSE 8.1 mph - N/A   Mostly Cloudy
12:53 AM 66.0 °F 62.1 °F 87% 30.07 in 10.0 mi South 6.9 mph - N/A   Overcast
1:53 AM 66.0 °F 62.1 °F 87% 30.07 in 9.0 mi South 4.6 mph - N/A   Overcast
2:53 AM 66.0 °F 62.1 °F 87% 30.06 in 9.0 mi SSE 11.5 mph 16.1 mph N/A   Overcast
3:31 AM 66.2 °F 62.6 °F 88% 30.11 in 9.0 mi South 6.9 mph - N/A   Overcast
3:53 AM 66.0 °F 62.1 °F 87% 30.06 in 10.0 mi South 8.1 mph - N/A   Overcast
4:05 AM 66.2 °F 62.6 °F 88% 30.10 in 10.0 mi South 6.9 mph - N/A   Overcast
4:53 AM 66.0 °F 62.1 °F 87% 30.06 in 9.0 mi South 4.6 mph - N/A   Overcast
5:05 AM 66.2 °F 62.6 °F 88% 30.11 in 9.0 mi Calm Calm - N/A   Overcast
5:53 AM 66.0 °F 62.1 °F 87% 30.08 in 10.0 mi Calm Calm - N/A   Overcast
6:53 AM 66.0 °F 62.1 °F 87% 30.11 in 9.0 mi Calm Calm - N/A   Overcast
7:07 AM 66.2 °F 62.6 °F 88% 30.15 in 9.0 mi Calm Calm - N/A   Overcast
7:45 AM 66.2 °F 60.8 °F 83% 30.17 in 10.0 mi ESE 3.5 mph - N/A   Overcast
7:53 AM 66.0 °F 61.0 °F 84% 30.13 in 9.0 mi East 3.5 mph - N/A   Overcast
8:11 AM 66.2 °F 62.6 °F 88% 30.17 in 8.0 mi SE 4.6 mph - N/A   Overcast
8:43 AM 66.2 °F 62.6 °F 88% 30.17 in 8.0 mi ESE 4.6 mph - N/A   Overcast
8:53 AM 66.9 °F 62.1 °F 84% 30.14 in 7.0 mi SE 4.6 mph - N/A   Overcast
9:39 AM 68.0 °F 62.6 °F 83% 30.18 in 8.0 mi SSE 4.6 mph - N/A   Mostly Cloudy
9:53 AM 68.0 °F 63.0 °F 84% 30.15 in 8.0 mi South 8.1 mph - N/A   Mostly Cloudy
10:53 AM 70.0 °F 63.0 °F 78% 30.16 in 7.0 mi South 10.4 mph - N/A   Overcast
11:36 AM 71.6 °F 62.6 °F 73% 30.19 in 9.0 mi SSE 9.2 mph 16.1 mph N/A   Mostly Cloudy
11:53 AM 72.0 °F 63.0 °F 73% 30.15 in 8.0 mi South 9.2 mph - N/A   Overcast
12:00 PM 71.6 °F 62.6 °F 73% 30.18 in 8.0 mi SSE 9.2 mph 16.1 mph N/A   Overcast
12:38 PM 71.6 °F 62.6 °F 73% 30.17 in 8.0 mi South 11.5 mph 16.1 mph N/A   Overcast
12:53 PM 72.0 °F 63.0 °F 73% 30.14 in 9.0 mi South 10.4 mph 17.3 mph N/A   Overcast
1:53 PM 73.9 °F 63.0 °F 68% 30.11 in 10.0 mi South 9.2 mph - N/A   Overcast
2:53 PM 75.0 °F 63.0 °F 66% 30.08 in 10.0 mi South 9.2 mph - N/A   Overcast
3:53 PM 79.0 °F 62.1 °F 56% 30.05 in 10.0 mi South 12.7 mph 19.6 mph N/A   Overcast
4:53 PM 77.0 °F 62.1 °F 60% 30.04 in 9.0 mi SSE 8.1 mph - N/A   Overcast
5:53 PM 78.1 °F 61.0 °F 56% 30.03 in 10.0 mi South 6.9 mph 16.1 mph N/A   Mostly Cloudy
6:53 PM 75.9 °F 62.1 °F 62% 30.04 in 10.0 mi SSE 6.9 mph - N/A   Overcast
7:53 PM 73.9 °F 63.0 °F 68% 30.05 in 10.0 mi SSE 5.8 mph - N/A   Clear
8:53 PM 72.0 °F 63.0 °F 73% 30.06 in 10.0 mi SSE 3.5 mph - N/A   Clear
9:53 PM 71.1 °F 63.0 °F 75% 30.08 in 10.0 mi SSE 4.6 mph - N/A   Clear
10:53 PM 70.0 °F 64.0 °F 81% 30.09 in 10.0 mi SSE 6.9 mph - N/A   Clear
11:53 PM 69.1 °F 64.0 °F 84% 30.08 in 10.0 mi South 8.1 mph - N/A   Mostly Cloudy